GPS BIII-1 (PRN 04)

Last updated on July 6, 2021, 3:39 p.m. UTC

1 43873U 18109A   21186.53313213  .00000060  00000-0  00000-0 0  9999
2 43873  55.0400 163.5854 0013532 201.2491  66.5536  2.00557522 18813
UTC
Height (km)
Latitude
Longitude
Inclination
Orbital Period
UTC large
Height (km)
Speed (km/s)
/
Latitude / Longitude
Inclination (degrees)
Orbital Period (minutes)
Azimuth
Elevation
Range (km)
Doppler Factor
iOS Compass Heading
iOS Angle